TYPHON7 LOXZ-LOXZ

Flight info

Callsign TYPHON7
Flight time 0h 8m
Altitude 8000
Route DCT LOXZ
Aircraft EUFI/M-X/0033

Departure

Time 2026-05-06 20:48
Airport Hinterstoisser Air Base (LOXZ)

Arrival

Time 2026-05-06 20:57
Airport Hinterstoisser Air Base (LOXZ)
Time Latitude Longitude Altitude Speed Heading
2026-05-06 20:46 47.20413 14.75757 2205 ft 0 kts 260°
2026-05-06 20:48 47.20374 14.75428 2213 ft 76 kts 259°
2026-05-06 20:48 47.20242 14.74214 2241 ft 166 kts 259°
2026-05-06 20:48 47.20084 14.72145 3005 ft 240 kts 264°
2026-05-06 20:49 47.19926 14.69365 4482 ft 303 kts 265°
2026-05-06 20:49 47.20278 14.66042 5782 ft 378 kts 301°
2026-05-06 20:49 47.21690 14.62396 6100 ft 424 kts 283°
2026-05-06 20:49 47.20295 14.60508 7101 ft 398 kts 156°
2026-05-06 20:50 47.19075 14.64385 6512 ft 492 kts 85°
2026-05-06 20:50 47.19453 14.69807 6180 ft 568 kts 85°
2026-05-06 20:50 47.19847 14.75771 5872 ft 618 kts 85°
2026-05-06 20:50 47.20342 14.82215 5480 ft 647 kts 80°
2026-05-06 20:51 47.21908 14.88418 6045 ft 647 kts 61°
2026-05-06 20:51 47.24624 14.93697 6296 ft 652 kts 44°
2026-05-06 20:51 47.27878 14.98384 6498 ft 656 kts 45°
2026-05-06 20:51 47.29938 15.04249 7228 ft 647 kts 77°
2026-05-06 20:52 47.30334 15.10652 7992 ft 608 kts 99°
2026-05-06 20:52 47.30011 15.16655 8861 ft 575 kts 68°
2026-05-06 20:52 47.33191 15.19403 8467 ft 582 kts 352°
2026-05-06 20:52 47.36654 15.16182 7205 ft 619 kts 306°
2026-05-06 20:53 47.37617 15.10224 6616 ft 623 kts 259°
2026-05-06 20:53 47.36484 15.04027 5585 ft 616 kts 232°
2026-05-06 20:53 47.33849 15.00022 5623 ft 483 kts 223°
2026-05-06 20:53 47.31537 14.97076 5524 ft 402 kts 215°
2026-05-06 20:54 47.29424 14.94904 5813 ft 342 kts 215°
2026-05-06 20:54 47.27572 14.93055 5774 ft 308 kts 213°
2026-05-06 20:54 47.25853 14.91387 5315 ft 283 kts 213°
2026-05-06 20:54 47.24372 14.89940 5011 ft 238 kts 216°
2026-05-06 20:55 47.23336 14.88517 4770 ft 178 kts 236°
2026-05-06 20:55 47.22628 14.87114 4025 ft 169 kts 230°
2026-05-06 20:55 47.21950 14.85675 3454 ft 170 kts 239°
2026-05-06 20:55 47.21534 14.84059 3044 ft 172 kts 255°
2026-05-06 20:56 47.21296 14.82352 2755 ft 173 kts 255°
2026-05-06 20:56 47.21050 14.80495 2652 ft 193 kts 257°
2026-05-06 20:56 47.20789 14.78563 2570 ft 191 kts 254°
2026-05-06 20:56 47.20543 14.76735 2348 ft 171 kts 258°
2026-05-06 20:57 47.20341 14.75163 2224 ft 138 kts 258°
2026-05-06 20:57 47.20200 14.74000 2237 ft 73 kts 263°
2026-05-06 20:57 47.20185 14.73762 2242 ft 0 kts 261°